TimeEST,TemperatureF,Dew PointF,Humidity,Sea Level PressureIn,VisibilityMPH,Wind Direction,Wind SpeedMPH,Gust SpeedMPH,PrecipitationIn,Events,Conditions,WindDirDegrees,DateUTC
12:51 AM,15.1,6.1,68,29.90,10.0,SW,4.6,-,N/A,,Clear,230,2014-02-27 05:51:00
1:51 AM,16.0,5.0,62,29.89,10.0,WSW,5.8,-,N/A,,Clear,240,2014-02-27 06:51:00
2:51 AM,16.0,5.0,62,29.86,10.0,WSW,10.4,-,N/A,,Clear,250,2014-02-27 07:51:00
3:51 AM,15.1,3.9,61,29.87,10.0,WSW,9.2,-,N/A,,Clear,250,2014-02-27 08:51:00
4:51 AM,15.1,3.0,59,29.86,10.0,WSW,10.4,-,N/A,,Clear,250,2014-02-27 09:51:00
5:51 AM,14.0,1.9,59,29.86,10.0,West,12.7,-,N/A,,Clear,260,2014-02-27 10:51:00
6:51 AM,14.0,-0.0,54,29.88,10.0,WSW,8.1,-,N/A,,Clear,250,2014-02-27 11:51:00
7:51 AM,15.1,-0.0,51,29.88,10.0,WSW,11.5,16.1,N/A,,Clear,250,2014-02-27 12:51:00
8:51 AM,17.1,1.0,50,29.89,10.0,West,12.7,26.5,N/A,,Clear,260,2014-02-27 13:51:00
9:51 AM,19.9,3.9,50,29.89,10.0,WNW,15.0,24.2,N/A,,Clear,290,2014-02-27 14:51:00
10:51 AM,24.1,6.1,46,29.88,10.0,West,23.0,31.1,N/A,,Clear,260,2014-02-27 15:51:00
11:51 AM,27.0,7.0,43,29.87,10.0,WNW,17.3,26.5,N/A,,Clear,290,2014-02-27 16:51:00
12:51 PM,28.0,3.9,36,29.87,10.0,West,21.9,34.5,N/A,,Clear,280,2014-02-27 17:51:00
1:51 PM,28.9,6.1,38,29.87,10.0,West,17.3,28.8,N/A,,Clear,280,2014-02-27 18:51:00
2:51 PM,28.9,3.9,35,29.89,10.0,WNW,20.7,27.6,N/A,,Clear,290,2014-02-27 19:51:00
3:51 PM,30.0,6.1,36,29.92,10.0,West,16.1,26.5,N/A,,Clear,280,2014-02-27 20:51:00
4:51 PM,28.0,3.9,36,29.95,10.0,West,16.1,27.6,N/A,,Clear,280,2014-02-27 21:51:00
5:51 PM,27.0,5.0,39,29.98,10.0,NW,12.7,21.9,N/A,,Clear,310,2014-02-27 22:51:00
6:51 PM,25.0,5.0,43,30.01,10.0,NW,11.5,-,N/A,,Clear,320,2014-02-27 23:51:00
7:51 PM,23.0,5.0,46,30.04,10.0,NW,9.2,-,N/A,,Clear,310,2014-02-28 00:51:00
8:51 PM,21.9,5.0,48,30.04,10.0,NW,8.1,-,N/A,,Clear,310,2014-02-28 01:51:00
9:51 PM,19.0,-0.0,43,30.08,10.0,North,11.5,-,N/A,,Clear,360,2014-02-28 02:51:00
10:51 PM,17.1,-0.9,45,30.09,10.0,NNW,11.5,-,N/A,,Clear,340,2014-02-28 03:51:00
11:51 PM,16.0,1.0,52,30.10,10.0,North,9.2,-,N/A,,Clear,360,2014-02-28 04:51:00